DELTA 1 DEB, 7037

Orbit data source: Space-Track

DELTA 1 DEB, 7037 is space debris in LEO originally from a launch on Tue, 06 Nov 1973 UTC launched from the Air Force Western Test Range (AFWTR). Debris objects in space refer to the collection of defunct objects orbiting the Earth. Examples of debris include non-operational satellites, rocket bodies, and fragments generated from explosions, collisions, or faulty payload assembly.

Loading next visibility...
Identifier
7037, 1973-086AD
Orbit
LEO
Country
Flag of USUS
Related business
Manufacturer
Unknown
Mission
Spacecraft
Bus & Motor
Unknown
Mass
Unknown
Launch date (UTC)
1973-11-06 (52 years ago)
Launch vehicle
Unknown
Launch site
Air Force Western Test Range (AFWTR)
Object type
Payload
Rocket body
Debris
Shape & HBR
Unknown
Radar Cross Section
Medium (>0.1 m² and <1 m²)

Expand to show TLE details & history
Last TLE update: 18 hours ago

TLE from 18 hours ago
0 DELTA 1 DEB
1 07037U 73086AD  25259.16963464  .00000293  00000-0  41943-2 0  9990
2 07037 102.0436 326.3121 0324205 283.1189  97.5997 11.86639106245504
Epoch: 2025-09-16T04:04Z
TLE epoch observation values (Epoch: 2025-09-16T04:04:16.432Z)
Latitude
23.8307°
Longitude
-95.50185°
Altitude
1,786.883 km
Speed
6.971 km/s
True Right ascension
21h 23m 43s
True Declination
23° 43' 11"
Sunlit
Object was in full shadow at epoch
Visualization orbit readout
Latitude
Unknown
Longitude
Unknown
Altitude
Unknown
Speed
Unknown
Apparent Right ascension
Unknown
Apparent Declination
Unknown
Sunlit
N/A
Visualization observer readout
Local Sidereal Time
14:28:30
Azimuth
Unknown
Elevation
Unknown
Doppler factor
Unknown
Orbital elements
Apogee altitude
2,002.042 km
Perigee altitude
1,475.727 km
Semi-major axis
8,117.021 km
Eccentricity
0.03242
Inclination
102.0436°
RAAN
326.3121°
Arg. of periapsis
283.1189°
True anomaly
101.26006°
Mean anomaly
97.5997°
Eccentric anomaly
99.43214°
Mean motion
2.96789 °/min
Orbital period
121.3 mins
BSTAR
0.0041943
Loading maneuver chart data...
Computing Atmospheric mass density...
Loading historical data...
Loading historical data...
Loading historical data...
Loading historical data...
Loading historical data...
Loading historical data...
Loading historical data...

Documentation

Showing up to 5 results
|